Location: Le Moustier
(44.1000°N, 6.5167°E)
Time: 03:24:40
(UTC+00:00)

Landsat 7 - Pass Details

Date: 13 December 2025
Orbit: 680 x 682 km, 97.9° (Epoch: 12 January)

Event Time Altitude Azimuth Distance (km) Brightness Sun altitude
Rises 17:15:22 0° 171° (S) 3,029 7.2 -13.7°
Reaches altitude 10° 17:17:36 10° 173° (S) 2,118 6.4 -14.1°
Maximum altitude 17:22:14 72° 258° (WSW) 719 4.0 -14.9°
Drops below altitude 10° 17:26:54 10° 343° (NNW) 2,134 6.3 -15.7°
Sets 17:29:09 0° 346° (NNW) 3,054 7.1 -16.0°
